{"data":{"norad_id":61725,"intl_designator":"2024-196U","name":"STARLINK-32573","alt_names":[],"object_type":"PAYLOAD","status":"ACTIVE","operator":null,"country":"US","launch_date":"2024-10-30","launch_site_code":"AFETR","launch_vehicle":null,"mission":null,"orbit_class":"UNKNOWN","rcs_meters":null,"size_class":null,"mass_kg":null,"dimensions":null,"purposes":["comms"],"wikipedia_slug":null,"has_3d_model":false,"image_url":null,"decayed_at":null,"tle_current":{"epoch":"2026-09-21T12:10:26.945184Z","epoch_age_seconds":101868,"freshness":"FRESH","line1":"1 61725U 24196U   26264.50725631  .00000735  00000+0  32902-4 0  9996","line2":"2 61725  53.1609 269.1992 0001540  79.8341 280.2835 15.34394693107178","mean_motion":15.34394693,"eccentricity":0.000154,"inclination_deg":53.1609,"raan_deg":269.1992,"arg_perigee_deg":79.8341,"mean_anomaly_deg":280.2835,"bstar":3.2902e-5,"rev_number":10717,"period_min":93.848082671907,"perigee_km":461.66552194885,"apogee_km":463.77250560109,"semimajor_km":6840.856013775,"source":"CELESTRAK","updated_at":"2026-09-22T09:00:49.438450Z"}}}